Regional Weather Roundup
Issued by NWS Wilmington, NC

Home | Current Version | Previous Version | Text Only | Print | Product List | Glossary On
Versions: 1 2 3 4 5 6 7 8 9 10 11 12 13 14 15 16 17 18 19 20 21 22 23 24 25 26 27 28 29 30 31 32 33 34 35 36 37 38 39 40 41 42 43 44 45 46 47 48 49 50
000
ASUS42 KILM 282113
RWRILM
RWRILM
REGIONAL HOURLY WEATHER ROUNDUP
NATIONAL WEATHER SERVICE WILMINGTON NC
500 PM EDT WED JUN 28 2017

NOTE: "FAIR" INDICATES FEW OR NO CLOUDS BELOW 12,000 FEET WITH NO
SIGNIFICANT WEATHER AND/OR OBSTRUCTIONS TO VISIBILITY.

...............WFO WILMINGTON COUNTY WARNING AREA...............

......COASTAL NC AND SC COUNTIES......

CITY           SKY/WX    TMP DP  RH WIND       PRES   REMARKS
WILMINGTON     SUNNY     84  55  36 E9        30.15F
N MYRTLE BEACH SUNNY     82  60  47 SE10      30.15F
MYRTLE BEACH   MOSUNNY   82  63  51 SE13      30.16F

......INLAND NC AND SC COUNTIES.......

CITY           SKY/WX    TMP DP  RH WIND       PRES   REMARKS
LUMBERTON      MOSUNNY   87  53  31 N3        30.14F
ELIZABETHTOWN  NOT AVBL
WHITEVILLE     SUNNY     85  51  31 NE5       30.14F
FLORENCE       SUNNY     86  55  34 NE9       30.15F
DARLINGTON     SUNNY     86  55  34 E8        30.15F
KINGSTREE      FAIR      82  54  36 NE3       30.14F
HARTSVILLE     FAIR      86  55  35 CALM      30.14F
BENNETTSVILLE  FAIR      88  52  29 NE3       30.14S
CONWAY         FAIR      86  54  32 NE8       30.14F HAZE
GEORGETOWN     FAIR      82  55  39 SE12      30.16F
MARION         FAIR      84  54  34 N6        30.15F

....................REST OF NORTH CAROLINA......................

.........EASTERN NC.........

CITY           SKY/WX    TMP DP  RH WIND       PRES   REMARKS
CAPE HATTERAS  NOT AVBL
JACKSONVILLE   SUNNY     83  53  35 N6        30.17S
MOREHEAD CITY  SUNNY     83  60  45 E7        30.16F
KENANSVILLE    SUNNY     82  52  34 E3        30.17S
NEW BERN       SUNNY     83  54  36 NE5       30.17F
ELIZABETH CITY SUNNY     79  60  52 E9        30.18F

.........CENTRAL NC.........

CITY           SKY/WX    TMP DP  RH WIND       PRES   REMARKS
RALEIGH DURHAM MOSUNNY   83  52  34 E7        30.17F
ROCKY MOUNT    SUNNY     82  51  34 NW3       30.17F
ROANOKE RAPIDS NOT AVBL
FAYETTEVILLE   SUNNY     87  54  32 E8        30.15F
HOFFMAN        SUNNY     85  52  32 NE5       30.14F

.........WESTERN NC.........

CITY           SKY/WX    TMP DP  RH WIND       PRES   REMARKS
CHARLOTTE      PTSUNNY   83  53  35 VRB3      30.17S
GREENSBORO     PTSUNNY   80  58  46 NE8       30.16F
HICKORY        NOT AVBL
BOONE          NOT AVBL
ASHEVILLE      NOT AVBL

.....................REST OF SOUTH CAROLINA.....................

.........EASTERN SC.........

CITY           SKY/WX    TMP DP  RH WIND       PRES   REMARKS
CHARLESTON     MOSUNNY   85  59  41 E13       30.13F
BEAUFORT MCAS  PTSUNNY   85  70  60 E12       30.13S
HILTON HEAD    MOSUNNY   82  72  69 NE7       30.13F

.........CENTRAL SC.........

CITY           SKY/WX    TMP DP  RH WIND       PRES   REMARKS
COLUMBIA       MOSUNNY   86  55  34 E7        30.13F
ORANGEBURG     MOSUNNY   86  58  38 E6        30.13F
SUMTER SHAW    MOSUNNY   88  56  34 E7        30.12F

.........WESTERN SC.........

CITY           SKY/WX    TMP DP  RH WIND       PRES   REMARKS
GREENVILLE     NOT AVBL
ROCK HILL      CLOUDY    82  56  40 SE3       30.16F
ANDERSON       SUNNY     82  59  45 E6        30.15S
CLEMSON        NOT AVBL
GREENWOOD      MOSUNNY   84  56  38 E5        30.15F


...................COASTAL AND OFFSHORE REPORTS..................

................LOCAL PIERS AND NC RESERVE................


STATION/POSITION TIME  SKY/WX   TEMP    WIND        PRES    VSBY
                                AIR SEA DIR/SP/G
                 (UTC)          (F)     (DEG/KT/KT) (MB)    (MI)
JOHNY MRCER PIER 2048            80 81  100/ 11/ 12 1020.4F
NC RESRV MASNBRO 1945            84     100/  3     1023.0
OCEAN CREST PIER NOT AVBL
SPRINGMAID  PIER 2042                               1020.5F


................COASTAL AND OFFSHORE BUOYS................


STATION/POSITION TIME  SKY/WX   TEMP    WIND        PRES    VSBY
                                AIR SEA DIR/SP/G
                 (UTC)          (F)     (DEG/KT/KT) (MB)    (MI)
DIMNDSHOAL 41025 2050            78 83   40/  8/ 10 1021.5F
WVE H/P(F/S)=  3/ 6 SWL H/P/D(F/S/D)=  2/ 60/ 6

CAPE LOOKOUT     2000            79      60/ 12/ 14 1021.3F
ONSLOW BAY 41036 NOT AVBL
ONSLOW BAY 41064 NOT AVBL
ONSLOW BAY 41159 2043               81                N/A
WVE H/P(F/S)=  2/ 8

MASNBO INL 41110 2059               80                N/A
WVE H/P(F/S)=  2/ 8

WILM HARBR 41108 NOT AVBL
27SE WRITB 41037 2008            80 81   80/  6/ 10 1021.4F
FRYING PAN 41013 2050            78 80   50/ 12/ 14 1021.0F
WVE H/P(F/S)=  3/ 5 SWL H/P/D(F/S/D)=  2/120/ 6

SUNST NRSH 41024 NOT AVBL
CAPRS NRSH 41029 2008            85 83   70/ 14/ 19 1020.6F
EDISTO     41004 2050            80 80   50/ 16/ 19 1020.0F
WVE H/P(F/S)=  5/ 6



..........OFFSHORE BUOYS BEYOND 100 NM OFFSHORE...........
.....IN A TRIANGLE---HAT TO BERMUDA TO BAHAMAS TO HAT.....


STATION/POSITION TIME  SKY/WX   TEMP    WIND        PRES    VSBY
                                AIR SEA DIR/SP/G
                 (UTC)          (F)     (DEG/KT/KT) (MB)    (MI)
150E HAT   41001 2050            79 79   30/ 12/ 14 1021.8R
WVE H/P(F/S)=  2/ 7 SWL H/P/D(F/S/D)=  2/150/ 7

W BERMUDA  41048 2050            77 81  230/  6/  8 1019.4F
WVE H/P(F/S)=  3/ 6 SWL H/P/D(F/S/D)=  3/250/ 6

ATLANTIC S 41049 2050            82 85   90/  2/  4 1020.6F
WVE H/P(F/S)=  3/ 9 SWL H/P/D(F/S/D)=  3/110/ 9

E BAHAMAS  41046 2050            83 84  100/  8/ 10 1018.3S
WVE H/P(F/S)=  3/ 8 SWL H/P/D(F/S/D)=  3/130/ 8

NE BAHAMAS 41047 2050            81 83  280/  6/ 10 1019.5R
WVE H/P(F/S)=  3/ 7 SWL H/P/D(F/S/D)=  2/160/ 7

120E CANVRL41010 2050            81 84   80/  8/ 10 1017.5R
WVE H/P(F/S)=  3/ 7 SWL H/P/D(F/S/D)=  2/120/ 7


END



USA.gov is the U.S. government's official web portal to all federal, state and local government web resources and services.